Location: Unspecified
(0.0000°N, 0.0000°E)
Time: 09:53:12
(UTC+00:00)

NNS O-29 - Pass Details

Date: 12 August 2024
Orbit: 1013 x 1173 km, 90.4° (Epoch: 07 September)

Event Time Altitude Azimuth Distance (km) Brightness Sun altitude
Rises 19:43:22 0° 332° (NNW) 3,783 10.7 -23.8°
Reaches altitude 10° 19:46:55 10° 313° (NW) 2,813 10.2 -24.6°
Maximum altitude 19:50:45 17° 275° (W) 2,344 9.8 -25.5°
Drops below altitude 10° 19:54:34 10° 237° (WSW) 2,794 9.9 -26.5°
Sets 19:58:07 0° 217° (SW) 3,746 10.3 -27.3°
